Location: Akdamlar
(36.8729°N, 30.5187°E)
Time: 21:28:08
(UTC+00:00)

Cosmos 2084 Rocket - Pass Details

Date: 18 September 2020
Orbit: 546 x 635 km, 62.8° (Epoch: 24 October)

Event Time Altitude Azimuth Distance (km) Brightness Sun altitude
Rises 17:35:18 0° 323° (NW) 2,872 7.9 -19.5°
Reaches altitude 10° 17:37:34 10° 321° (NW) 1,977 7.0 -19.9°
Maximum altitude 17:42:00 63° 240° (WSW) 695 3.9 -20.8°
Enters shadow 17:43:53 33° 171° (S) 1,051 4.5 -21.1°
